User: anonymous
Location: Ottawa
(45.4170°N, 75.7000°W)
Time: 20:33:13
(UTC-04:00)
Language:

Aureole 3 Rocket - Orbit

View from above orbital plane
View from above orbital plane
View from above satellite
View from above satellite

Ground track
Ground track

The orbit data is extracted from the following two-line orbital elements,

1 12849U 81094B   14208.72531796  .00000697  00000-0  63397-4 0  9423
2 12849 082.4910 255.7510 0911521 009.8579 351.9158 13.48169263599583
Epoch (UTC): 27 July 2014 17:24:27
Eccentricity: 0.0911521
inclination: 82.4910°
perigee height: 399 km
apogee height: 1759 km
right ascension of ascending node: 255.7510°
argument of perigee: 9.8579°
revolutions per day: 13.48169263
mean anomaly at epoch: 351.9158°
orbit number at epoch: 59958

The dashed part of the orbit path shows where the satellite is in the earth's shadow,  

DLR